FW0299 Weather Reports


Display with metric or nautical units.
time (UTC)temp
F
wind
direction
speed
MPH
gust
MPH
rain 1hr
in
rain 24hr
in
rain mn
in
humidity
%
barometer
mb
20260504204306 64 290 3.0 11.0 0.00 0.02 0.00 66 1013.3
20260504203800 64 88 4.0 11.0 0.00 0.02 0.00 65 1013.2
20260504203254 63 234 4.0 11.0 0.00 0.02 0.00 68 1013.2
20260504203019 63 5 4.0 11.0 0.00 0.02 0.00 67 1013.3
20260504202242 63 76 4.0 11.0 0.00 0.02 0.00 65 1013.3
20260504201736 63 57 4.0 9.0 0.00 0.02 0.00 67 1013.4
20260504201453 63 223 4.0 10.0 0.00 0.02 0.00 66 1013.4
20260504200724 62 274 4.0 10.0 0.00 0.02 0.00 66 1013.4
20260504200218 62 79 4.0 11.0 0.00 0.02 0.00 70 1013.4
20260504195712 62 253 5.0 11.0 0.00 0.02 0.00 68 1013.4
20260504195206 62 11 4.0 10.0 0.00 0.02 0.00 68 1013.6
20260504194700 62 27 4.0 10.0 0.00 0.02 0.00 70 1013.6
20260504194154 61 33 4.0 10.0 0.00 0.02 0.00 68 1013.7
20260504193648 62 267 3.0 9.0 0.00 0.02 0.00 68 1013.7
20260504193142 61 25 4.0 10.0 0.00 0.02 0.00 69 1013.7
20260504192636 61 279 4.0 10.0 0.00 0.02 0.00 69 1013.9
20260504192129 61 109 4.0 9.0 0.00 0.02 0.00 69 1014.0
20260504191623 60 100 4.0 10.0 0.00 0.02 0.00 72 1014.0
20260504191118 60 76 4.0 10.0 0.00 0.02 0.00 71 1014.1
20260504190835 60 268 3.0 6.0 0.00 0.02 0.00 72 1014.2
20260504190106 60 48 3.0 8.0 0.00 0.02 0.00 73 1014.3
20260504185600 59 342 4.0 9.0 0.00 0.02 0.00 74 1014.3
20260504185054 59 313 4.0 9.0 0.00 0.02 0.00 74 1014.4
20260504184547 59 170 3.0 9.0 0.00 0.02 0.00 74 1014.5
20260504184042 58 309 3.0 10.0 0.00 0.02 0.00 75 1014.4
20260504183535 58 189 3.0 10.0 0.00 0.02 0.00 75 1014.5
20260504183029 58 21 4.0 10.0 0.00 0.02 0.00 77 1014.5
20260504182524 57 150 4.0 12.0 0.00 0.02 0.00 77 1014.6
20260504181511 56 86 4.0 9.0 0.00 0.02 0.00 78 1014.5
20260504181006 56 17 4.0 9.0 0.00 0.02 0.00 79 1014.5
20260504180500 56 5 4.0 10.0 0.00 0.02 0.00 81 1014.5
20260504175954 55 194 4.0 10.0 0.00 0.02 0.00 81 1014.6
20260504175448 55 125 3.0 9.0 0.00 0.02 0.00 81 1014.5
20260504174944 55 294 4.0 9.0 0.00 0.02 0.00 81 1014.6
20260504174444 55 84 3.0 9.0 0.00 0.02 0.00 82 1014.5
20260504173943 54 107 3.0 9.0 0.00 0.02 0.00 82 1014.4
20260504173442 54 177 3.0 9.0 0.00 0.02 0.00 82 1014.4
20260504172942 54 82 3.0 7.0 0.00 0.02 0.00 82 1014.5
20260504172703 53 92 3.0 9.0 0.00 0.02 0.00 82 1014.4
20260504171942 52 36 3.0 9.0 0.00 0.02 0.00 82 1014.5
20260504171440 52 111 3.0 7.0 0.00 0.02 0.00 80 1014.5
20260504170940 51 161 3.0 7.0 0.00 0.02 0.00 74 1014.4
20260504150935 49 43 2.0 8.0 0.00 0.02 0.00 28 1014.4
20260504150428 49 192 3.0 8.0 0.00 0.02 0.00 23 1014.4
20260504140903 49 76 1.0 6.0 0.00 0.02 0.00 17 1014.2
20260504140404 49 76 1.0 6.0 0.00 0.02 0.00 17 1014.1
20260504140132 49 190 1.0 6.0 0.00 0.02 0.00 17 1014.1
20260504130325 47 182 1.0 5.0 0.00 0.02 0.00 24 1013.6
20260504120213 47 223 0.0 0.0 0.00 0.02 0.00 57 1013.7
20260504110608 48 94 2.0 7.0 0.00 0.02 0.00 58 1013.6
20260504100521 49 333 2.0 7.0 0.00 0.02 0.00 80 1013.5
20260504081505 51 69 0.0 0.0 0.00 0.02 0.00 71 1013.9
20260504081006 51 69 0.0 0.0 0.00 0.02 0.00 71 1013.7
20260504080504 51 69 0.0 1.0 0.00 0.02 0.00 72 1013.9
20260504080229 51 69 0.0 2.0 0.00 0.02 0.00 73 1013.9
20260504060204 51 96 3.0 8.0 0.00 0.02 0.02 81 1013.9
20260504050436 51 355 3.0 8.0 0.00 0.02 0.02 80 1014.2
20260504045936 51 58 3.0 8.0 0.00 0.02 0.02 80 1014.2
20260504045433 51 75 3.0 12.0 0.00 0.02 0.02 80 1014.1
20260504044933 51 34 4.0 12.0 0.00 0.02 0.02 80 1014.2
20260504044430 51 26 5.0 11.0 0.00 0.02 0.02 80 1014.3
20260504043929 51 9 6.0 11.0 0.00 0.02 0.02 80 1014.5
20260504043429 51 346 5.0 11.0 0.00 0.02 0.02 80 1014.4
20260504042929 51 334 6.0 13.0 0.00 0.02 0.02 80 1014.6
20260504042429 52 338 6.0 19.0 0.00 0.02 0.02 80 1014.8
20260504041923 52 344 6.0 19.0 0.00 0.02 0.02 79 1014.9
20260504041418 52 348 6.0 11.0 0.00 0.02 0.02 79 1014.6
20260504040910 52 46 5.0 11.0 0.00 0.02 0.02 79 1014.5
20260504040404 52 32 4.0 11.0 0.00 0.02 0.02 79 1014.4
20260504035858 52 355 4.0 12.0 0.00 0.02 0.02 79 1014.3
20260504035352 52 5 4.0 12.0 0.00 0.02 0.02 79 1014.1
20260504035116 51 355 4.0 11.0 0.00 0.02 0.02 79 1013.9
20260504034341 51 0 5.0 12.0 0.00 0.02 0.02 80 1014.0
20260504033835 51 309 5.0 15.0 0.00 0.02 0.02 80 1013.6
20260504033328 51 40 5.0 15.0 0.00 0.02 0.02 80 1013.5
20260504032823 51 53 5.0 12.0 0.00 0.02 0.02 80 1013.3
20260504032317 51 19 5.0 12.0 0.00 0.02 0.02 80 1013.2
20260504031811 52 9 5.0 12.0 0.00 0.02 0.02 80 1013.2
20260504031305 52 15 5.0 12.0 0.00 0.02 0.02 81 1013.1
20260504030759 52 5 5.0 9.0 0.00 0.02 0.02 80 1013.2
20260504030252 53 17 4.0 9.0 0.00 0.02 0.02 80 1013.1
20260504025747 53 15 4.0 12.0 0.00 0.02 0.02 80 1013.3
20260504025241 53 40 5.0 12.0 0.00 0.02 0.02 80 1013.1
20260504024958 54 36 5.0 11.0 0.00 0.02 0.02 80 1013.1
20260504024229 55 54 5.0 15.0 0.00 0.02 0.02 79 1013.0
20260504023946 55 5 5.0 16.0 0.00 0.02 0.02 78 1013.0
20260504023217 57 57 5.0 16.0 0.00 0.02 0.02 77 1012.8
20260504022710 58 309 4.0 10.0 0.00 0.02 0.02 74 1012.5
20260504022205 59 355 4.0 9.0 0.00 0.02 0.02 72 1012.3
20260504021658 61 82 3.0 8.0 0.00 0.02 0.02 69 1012.1
20260504021153 62 321 1.0 8.0 0.00 0.02 0.02 65 1012.2
20260504020646 63 119 0.0 1.0 0.00 0.02 0.02 62 1012.2
20260504020402 64 119 1.0 6.0 0.00 0.02 0.02 60 1012.2
20260504015637 64 119 2.0 6.0 0.00 0.02 0.02 58 1012.1
20260504015131 65 119 2.0 5.0 0.00 0.02 0.02 58 1012.1
20260504014623 65 129 2.0 4.0 0.00 0.02 0.02 60 1012.2
20260504014116 65 130 1.0 4.0 0.00 0.02 0.02 58 1012.0
20260504013612 65 38 0.0 0.0 0.00 0.02 0.02 61 1012.1
20260504013106 66 323 0.0 0.0 0.00 0.02 0.02 63 1012.2
20260504012559 66 323 0.0 0.0 0.00 0.02 0.02 64 1012.2
20260504012053 66 323 0.0 0.0 0.00 0.02 0.02 52 1012.3
20260504011547 66 323 1.0 3.0 0.01 0.02 0.02 63 1012.3
20260504011044 65 320 1.0 5.0 0.01 0.02 0.02 60 1012.3
20260504010809 63 347 0.0 5.0 0.02 0.02 0.02 66 1012.2
20260504010044 62 355 0.0 3.0 0.02 0.02 0.02 76 1012.2
20260504005541 61 355 1.0 3.0 0.02 0.02 0.02 76 1012.5
20260504005039 60 258 1.0 3.0 0.02 0.02 0.02 72 1012.6
20260504004800 60 258 2.0 4.0 0.02 0.02 0.02 68 1012.4
20260504004037 60 331 1.0 4.0 0.02 0.02 0.02 68 1012.3
20260504003537 60 348 2.0 5.0 0.02 0.02 0.02 71 1012.4
20260504003035 60 349 3.0 5.0 0.02 0.02 0.02 69 1012.5
20260504002533 59 333 2.0 5.0 0.02 0.02 0.02 67 1012.7
20260504002033 60 319 2.0 6.0 0.02 0.02 0.02 68 1012.8
20260504001533 61 309 2.0 7.0 0.01 0.01 0.01 68 1013.0
20260504001251 63 5 2.0 8.0 0.01 0.01 0.01 63 1013.0
20260504000531 64 131 4.0 12.0 0.00 0.00 0.00 52 1013.0
20260504000030 65 93 4.0 12.0 0.00 0.00 0.00 46 1012.8
20260503235530 66 106 5.0 11.0 0.00 0.00 0.00 45 1012.7
20260503235031 67 117 5.0 11.0 0.00 0.00 0.00 43 1012.7
20260503234529 68 123 5.0 10.0 0.00 0.00 0.00 42 1012.6
20260503234252 69 175 3.0 10.0 0.00 0.00 0.00 39 1012.6
20260503233529 70 122 3.0 10.0 0.00 0.00 0.00 40 1012.4
20260503233029 70 122 5.0 10.0 0.00 0.00 0.00 37 1012.4
20260503232529 71 109 4.0 10.0 0.00 0.00 0.00 37 1012.3
20260503231529 71 26 4.0 10.0 0.00 0.00 0.00 39 1012.2
20260503231029 70 304 4.0 9.0 0.00 0.00 0.00 39 1012.2
20260503230529 69 42 5.0 11.0 0.00 0.00 0.00 38 1012.2
20260503230029 70 123 5.0 11.0 0.00 0.00 0.00 37 1012.3
20260503225529 72 101 3.0 11.0 0.00 0.00 0.00 34 1012.3
20260503224526 72 317 3.0 8.0 0.00 0.00 0.00 33 1012.2
20260503224025 72 344 4.0 9.0 0.00 0.00 0.00 31 1012.3
20260503223525 73 355 4.0 9.0 0.00 0.00 0.00 31 1012.2
20260503223249 73 342 4.0 10.0 0.00 0.00 0.00 33 1012.3
20260503222524 72 319 4.0 11.0 0.00 0.00 0.00 35 1012.2
20260503222025 71 11 4.0 11.0 0.00 0.00 0.00 39 1012.3
20260503221525 70 355 2.0 5.0 0.00 0.00 0.00 39 1012.4
20260503221026 69 346 2.0 5.0 0.00 0.00 0.00 43 1012.5
20260503220521 69 344 4.0 8.0 0.00 0.00 0.00 41 1012.6
20260503220020 69 355 4.0 12.0 0.00 0.00 0.00 39 1012.6
20260503215520 69 339 4.0 12.0 0.00 0.00 0.00 42 1012.7
20260503215019 68 343 4.0 10.0 0.00 0.00 0.00 44 1013.0
20260503214519 68 347 3.0 9.0 0.00 0.00 0.00 42 1013.0
20260503214019 68 9 3.0 9.0 0.00 0.00 0.00 44 1013.1
20260503213518 68 59 2.0 8.0 0.00 0.00 0.00 39 1013.3
20260503213019 68 107 3.0 8.0 0.00 0.00 0.00 38 1013.3
20260503212517 68 110 4.0 10.0 0.00 0.00 0.00 40 1013.4
20260503212016 69 124 4.0 10.0 0.00 0.00 0.00 38 1013.5
20260503211517 69 119 3.0 8.0 0.00 0.00 0.00 42 1013.6
20260503211017 70 85 3.0 8.0 0.00 0.00 0.00 40 1013.5
20260503210517 71 106 2.0 4.0 0.00 0.00 0.00 36 1013.3
20260503210012 71 55 2.0 6.0 0.00 0.00 0.00 39 1013.3
20260503205505 71 315 1.0 6.0 0.00 0.00 0.00 36 1013.2
20260503204959 71 339 0.0 2.0 0.00 0.00 0.00 33 1013.2
20260503204452 71 333 0.0 2.0 0.00 0.00 0.00 33 1013.2